Location: Pcim
(49.7500°N, 19.9670°E)
Time: 20:54:54
(UTC+02:00)

AO-91 - Pass Details

Date: 24 April 2024
Orbit: 441 x 737 km, 97.6° (Epoch: 20 May)

Event Time Altitude Azimuth Distance (km) Brightness Sun altitude
Rises 22:29:50 0° 13° (NNE) 2,446 ? -21.0°
Reaches altitude 10° 22:31:51 10° 14° (NNE) 1,571 ? -21.2°
Enters shadow 22:34:51 71° 18° (NNE) 478 ? -21.4°
